,,,PA_Meas_PMT16A,,PR_Meas_QMR101_102,,RH_Meas_QMH101,,SR_Meas_QMS101,,TA_Meas_QMH101,,GenWind,,GenWind,
date,time,status,PA,status,PR,status,RH,status,SR,status,TA,status,DirAvg,status,SpdAvg,
2010-07-02, 00:00:04,VALID,1005.15,VALID,0,VALID,100.694,VALID,0,VALID,25.1813,VALID,16,VALID,0,
2010-07-02, 00:01:04,VALID,1005.18,VALID,0,VALID,100.778,VALID,0,VALID,25.2007,VALID,17,VALID,0,
2010-07-02, 00:02:04,VALID,1005.2,VALID,0,VALID,100.816,VALID,0,VALID,25.1832,VALID,17,VALID,0,
2010-07-02, 00:03:04,VALID,1005.17,VALID,0,VALID,100.884,VALID,0,VALID,25.1599,VALID,17,VALID,0,
2010-07-02, 00:04:04,VALID,1005.18,VALID,0,VALID,100.922,VALID,0,VALID,25.1813,VALID,17,VALID,0,
2010-07-02, 00:05:04,VALID,1005.17,VALID,0,VALID,100.991,VALID,0,VALID,25.1618,VALID,17,VALID,0,
2010-07-02, 00:06:04,VALID,1005.14,VALID,0,VALID,101.006,VALID,0,VALID,25.1832,VALID,17,VALID,0,
2010-07-02, 00:07:04,VALID,1005.08,VALID,0,VALID,101.052,VALID,0,VALID,25.1832,VALID,17,VALID,0,
2010-07-02, 00:08:04,VALID,1005.09,VALID,0,VALID,101.045,VALID,0,VALID,25.1618,VALID,17,VALID,0,
2010-07-02, 00:09:04,VALID,1005.07,VALID,0,VALID,101.098,VALID,0,VALID,25.1423,VALID,17,VALID,0,
2010-07-02, 00:10:04,VALID,1005.06,VALID,0,VALID,101.151,VALID,0,VALID,25.2027,VALID,74,VALID,0.795703,
2010-07-02, 00:11:04,VALID,1005.08,VALID,0,VALID,101.121,VALID,0,VALID,25.2202,VALID,69,VALID,0.222266,
2010-07-02, 00:12:04,VALID,1005.03,VALID,0,VALID,100.983,VALID,0,VALID,25.2007,VALID,47,VALID,0.319531,
2010-07-02, 00:13:04,VALID,1005.04,VALID,0,VALID,100.892,VALID,0,VALID,25.2221,VALID,47,VALID,0.0371094,
2010-07-02, 00:14:04,VALID,1004.99,VALID,0,VALID,100.907,VALID,0,VALID,25.1813,VALID,47,VALID,0.166406,
2010-07-02, 00:15:04,VALID,1004.97,VALID,0,VALID,100.892,VALID,0,VALID,25.1832,VALID,47,VALID,0.570313,
2010-07-02, 00:16:04,VALID,1004.97,VALID,0,VALID,101.006,VALID,0,VALID,25.1618,VALID,46,VALID,0.442187,
2010-07-02, 00:17:04,VALID,1004.94,VALID,0,VALID,101.022,VALID,0,VALID,25.1618,VALID,23,VALID,0.377734,
2010-07-02, 00:18:04,VALID,1004.95,VALID,0,VALID,100.93,VALID,0,VALID,25.1637,VALID,23,VALID,0.400781,
2010-07-02, 00:19:04,VALID,1004.95,VALID,0,VALID,101.014,VALID,0,VALID,25.1637,VALID,29,VALID,0.357031,
2010-07-02, 00:20:04,VALID,1004.99,VALID,0,VALID,101.075,VALID,0,VALID,25.1618,VALID,29,VALID,0.6125,
2010-07-02, 00:21:04,VALID,1005.01,VALID,0,VALID,101.167,VALID,0,VALID,25.2202,VALID,40,VALID,0.225781,
2010-07-02, 00:22:04,VALID,1005.03,VALID,0,VALID,101.09,VALID,0,VALID,25.2611,VALID,50,VALID,0.398828,
2010-07-02, 00:23:04,VALID,1005.03,VALID,0,VALID,101.006,VALID,0,VALID,25.2806,VALID,88,VALID,0.0472656,
2010-07-02, 00:24:04,VALID,1005.04,VALID,0,VALID,100.938,VALID,0,VALID,25.2806,VALID,88,VALID,0.303906,
2010-07-02, 00:25:04,VALID,1005.08,VALID,0,VALID,100.945,VALID,0,VALID,25.2806,VALID,82,VALID,0.407031,
2010-07-02, 00:26:04,VALID,1005.06,VALID,0,VALID,100.907,VALID,0,VALID,25.2806,VALID,52,VALID,0.699609,
2010-07-02, 00:27:04,VALID,1005.07,VALID,0,VALID,100.884,VALID,0,VALID,25.2806,VALID,47,VALID,0.519922,
2010-07-02, 00:28:04,VALID,1005.06,VALID,0,VALID,100.892,VALID,0,VALID,25.2416,VALID,34,VALID,0.689062,
2010-07-02, 00:29:04,VALID,1005.03,VALID,0,VALID,101.022,VALID,0,VALID,25.2786,VALID,12,VALID,0.675391,
2010-07-02, 00:30:04,VALID,1004.98,VALID,0,VALID,101.075,VALID,0,VALID,25.3955,VALID,2,VALID,0.49375,
2010-07-02, 00:31:04,VALID,1004.9,VALID,0,VALID,100.839,VALID,0,VALID,25.4734,VALID,29,VALID,0.561719,
2010-07-02, 00:32:04,VALID,1004.85,VALID,0,VALID,100.572,VALID,0,VALID,25.5707,VALID,16,VALID,0.817969,
2010-07-02, 00:33:04,VALID,1004.79,VALID,0,VALID,100.099,VALID,0,VALID,25.7265,VALID,13,VALID,0.844141,
2010-07-02, 00:34:04,VALID,1004.78,VALID,0,VALID,97.0241,VALID,0,VALID,25.8434,VALID,29,VALID,0.234766,
2010-07-02, 00:35:04,VALID,1004.81,VALID,0,VALID,91.989,VALID,0,VALID,25.9232,VALID,47,VALID,0,
2010-07-02, 00:36:04,VALID,1004.8,VALID,0,VALID,90.7532,VALID,0,VALID,25.9817,VALID,26,VALID,0,
2010-07-02, 00:37:04,VALID,1004.82,VALID,0,VALID,89.7156,VALID,0,VALID,26.0012,VALID,26,VALID,0,
2010-07-02, 00:38:04,VALID,1004.8,VALID,0,VALID,89.3723,VALID,0,VALID,26.0012,VALID,26,VALID,0.307031,
2010-07-02, 00:39:04,VALID,1004.78,VALID,0,VALID,89.4868,VALID,0,VALID,25.9408,VALID,25,VALID,0.620703,
2010-07-02, 00:40:04,VALID,1004.75,VALID,0,VALID,89.4105,VALID,0,VALID,25.9427,VALID,8,VALID,0.539844,
2010-07-02, 00:41:04,VALID,1004.72,VALID,0,VALID,89.5859,VALID,0,VALID,25.9602,VALID,17,VALID,0.896094,
2010-07-02, 00:42:04,VALID,1004.68,VALID,0,VALID,89.3952,VALID,0,VALID,25.9992,VALID,20,VALID,1.00703,
2010-07-02, 00:43:04,VALID,1004.69,VALID,0,VALID,88.968,VALID,0,VALID,26.0381,VALID,24,VALID,0.462891,
2010-07-02, 00:44:04,VALID,1004.71,VALID,0,VALID,88.64,VALID,0,VALID,26.0791,VALID,360,VALID,0.825,
2010-07-02, 00:45:04,VALID,1004.69,VALID,0,VALID,88.4111,VALID,0,VALID,26.118,VALID,24,VALID,0.357812,
2010-07-02, 00:46:04,VALID,1004.7,VALID,0,VALID,88.167,VALID,0,VALID,26.1141,VALID,24,VALID,0.000390625,
2010-07-02, 00:47:04,VALID,1004.66,VALID,0,VALID,88.1746,VALID,0.100563,VALID,26.1355,VALID,22,VALID,0.478516,
2010-07-02, 00:48:04,VALID,1004.72,VALID,0,VALID,88.0068,VALID,0,VALID,26.1141,VALID,24,VALID,0.0140625,
2010-07-02, 00:49:04,VALID,1004.71,VALID,0,VALID,87.9076,VALID,0,VALID,26.1745,VALID,24,VALID,0,
2010-07-02, 00:50:04,VALID,1004.72,VALID,0,VALID,87.9686,VALID,0.100563,VALID,26.116,VALID,24,VALID,0.116016,
2010-07-02, 00:51:04,VALID,1004.72,VALID,0,VALID,88.0373,VALID,0,VALID,26.116,VALID,24,VALID,0.112891,
2010-07-02, 00:52:04,VALID,1004.7,VALID,0,VALID,88.2051,VALID,0.100563,VALID,26.0771,VALID,24,VALID,0,
2010-07-02, 00:53:04,VALID,1004.71,VALID,0,VALID,88.5484,VALID,0.100563,VALID,25.9777,VALID,24,VALID,0,
2010-07-02, 00:54:04,VALID,1004.7,VALID,0,VALID,88.8459,VALID,0.100563,VALID,25.9408,VALID,20,VALID,0.363281,
2010-07-02, 00:55:04,VALID,1004.71,VALID,0,VALID,89.2732,VALID,0.100563,VALID,25.8414,VALID,20,VALID,0.313672,
2010-07-02, 00:56:04,VALID,1004.69,VALID,0,VALID,89.6546,VALID,0.100563,VALID,25.785,VALID,20,VALID,0.3125,
2010-07-02, 00:57:04,VALID,1004.7,VALID,0,VALID,90.4327,VALID,0,VALID,25.7071,VALID,20,VALID,0.239453,
2010-07-02, 00:58:04,VALID,1004.72,VALID,0,VALID,91.8365,VALID,0,VALID,25.6486,VALID,20,VALID,0.302734,
2010-07-02, 00:59:04,VALID,1004.78,VALID,0,VALID,95.7424,VALID,0,VALID,25.5493,VALID,20,VALID,0.344922,
2010-07-02, 01:00:04,VALID,1004.8,VALID,0,VALID,97.9319,VALID,0,VALID,25.5123,VALID,20,VALID,0.437891,
2010-07-02, 01:01:04,VALID,1004.85,VALID,0,VALID,99.3814,VALID,0,VALID,25.4734,VALID,20,VALID,0.115234,
2010-07-02, 01:02:04,VALID,1004.86,VALID,0,VALID,99.8697,VALID,0,VALID,25.4753,VALID,92,VALID,0.555859,
2010-07-02, 01:03:04,VALID,1004.9,VALID,0,VALID,99.9612,VALID,0,VALID,25.4169,VALID,92,VALID,0,
2010-07-02, 01:04:04,VALID,1004.92,VALID,0,VALID,100.175,VALID,0,VALID,25.3974,VALID,92,VALID,0,
2010-07-02, 01:05:04,VALID,1004.87,VALID,0,VALID,100.381,VALID,0,VALID,25.3779,VALID,92,VALID,0,
2010-07-02, 01:06:04,VALID,1004.86,VALID,0,VALID,100.495,VALID,0,VALID,25.3974,VALID,92,VALID,0,
2010-07-02, 01:07:04,VALID,1004.81,VALID,0,VALID,100.625,VALID,0,VALID,25.4169,VALID,92,VALID,0,
2010-07-02, 01:08:04,VALID,1004.8,VALID,0,VALID,100.633,VALID,0,VALID,25.4558,VALID,92,VALID,0,
2010-07-02, 01:09:04,VALID,1004.75,VALID,0,VALID,100.625,VALID,0,VALID,25.4948,VALID,92,VALID,0,
2010-07-02, 01:10:04,VALID,1004.72,VALID,0,VALID,100.556,VALID,0,VALID,25.5532,VALID,92,VALID,0,
2010-07-02, 01:11:04,VALID,1004.68,VALID,0,VALID,100.366,VALID,0,VALID,25.6311,VALID,23,VALID,0,
2010-07-02, 01:12:04,VALID,1004.66,VALID,0,VALID,100.007,VALID,0,VALID,25.6876,VALID,23,VALID,0,
2010-07-02, 01:13:04,VALID,1004.62,VALID,0,VALID,99.4882,VALID,0,VALID,25.709,VALID,46,VALID,0.192969,
2010-07-02, 01:14:04,VALID,1004.62,VALID,0,VALID,99.1602,VALID,0,VALID,25.6876,VALID,9,VALID,0.866797,
2010-07-02, 01:15:04,VALID,1004.61,VALID,0,VALID,99.6637,VALID,0,VALID,25.6506,VALID,107,VALID,0.696094,
2010-07-02, 01:16:04,VALID,1004.61,VALID,0,VALID,99.6942,VALID,0,VALID,25.7071,VALID,83,VALID,0.828516,
2010-07-02, 01:17:04,VALID,1004.67,VALID,0,VALID,99.1068,VALID,0,VALID,25.746,VALID,105,VALID,0.877344,
2010-07-02, 01:18:04,VALID,1004.69,VALID,0,VALID,97.0928,VALID,0,VALID,25.8239,VALID,115,VALID,1.54258,
2010-07-02, 01:19:04,VALID,1004.69,VALID,0,VALID,91.3177,VALID,0,VALID,25.9777,VALID,129,VALID,1.8668,
2010-07-02, 01:20:04,VALID,1004.68,VALID,0,VALID,89.0214,VALID,0.100563,VALID,26.1355,VALID,128,VALID,2.24531,
2010-07-02, 01:21:04,VALID,1004.7,VALID,0,VALID,88.4111,VALID,0,VALID,26.2329,VALID,114,VALID,1.52656,
2010-07-02, 01:22:04,VALID,1004.68,VALID,0,VALID,87.7016,VALID,0,VALID,26.2719,VALID,107,VALID,1.69141,
2010-07-02, 01:23:04,VALID,1004.68,VALID,0,VALID,87.4499,VALID,0,VALID,26.2913,VALID,107,VALID,1.53672,
2010-07-02, 01:24:04,VALID,1004.67,VALID,0,VALID,87.2973,VALID,0,VALID,26.2504,VALID,111,VALID,1.68438,
2010-07-02, 01:25:04,VALID,1004.64,VALID,0,VALID,87.5033,VALID,0.100563,VALID,26.2309,VALID,122,VALID,1.21445,
2010-07-02, 01:26:04,VALID,1004.65,VALID,0,VALID,87.4651,VALID,0,VALID,26.2134,VALID,125,VALID,2.42148,
2010-07-02, 01:27:04,VALID,1004.61,VALID,0,VALID,87.3812,VALID,0.100563,VALID,26.2524,VALID,105,VALID,2.08984,
2010-07-02, 01:28:04,VALID,1004.62,VALID,0,VALID,87.3659,VALID,0,VALID,26.2504,VALID,111,VALID,0.899219,
2010-07-02, 01:29:04,VALID,1004.61,VALID,0,VALID,87.3736,VALID,0,VALID,26.2309,VALID,93,VALID,1.01719,
2010-07-02, 01:30:04,VALID,1004.62,VALID,0,VALID,87.5109,VALID,0,VALID,26.192,VALID,21,VALID,0.619922,
2010-07-02, 01:31:04,VALID,1004.62,VALID,0,VALID,87.6024,VALID,0,VALID,26.1765,VALID,92,VALID,1.33281,
2010-07-02, 01:32:04,VALID,1004.6,VALID,0,VALID,87.7321,VALID,0,VALID,26.159,VALID,68,VALID,0.957812,
2010-07-02, 01:33:04,VALID,1004.56,VALID,0,VALID,87.8923,VALID,0,VALID,26.0985,VALID,66,VALID,1.03398,
2010-07-02, 01:34:04,VALID,1004.5,VALID,0,VALID,87.9228,VALID,0,VALID,26.0596,VALID,81,VALID,1.45742,
2010-07-02, 01:35:04,VALID,1004.52,VALID,0,VALID,87.9915,VALID,0,VALID,26.0187,VALID,68,VALID,0.570703,
2010-07-02, 01:36:04,VALID,1004.46,VALID,0,VALID,88.0754,VALID,0,VALID,26.0206,VALID,74,VALID,0.566016,
2010-07-02, 01:37:04,VALID,1004.44,VALID,0,VALID,88.2204,VALID,0,VALID,26.0012,VALID,67,VALID,0.325781,
2010-07-02, 01:38:04,VALID,1004.44,VALID,0,VALID,88.3272,VALID,0,VALID,25.9408,VALID,73,VALID,0.306641,
2010-07-02, 01:39:04,VALID,1004.43,VALID,0,VALID,88.495,VALID,0,VALID,25.9232,VALID,52,VALID,0.689844,
2010-07-02, 01:40:04,VALID,1004.45,VALID,0,VALID,88.7468,VALID,0,VALID,25.8843,VALID,41,VALID,0.0476562,
2010-07-02, 01:41:04,VALID,1004.45,VALID,0,VALID,88.9375,VALID,0,VALID,25.8239,VALID,98,VALID,0.877344,
2010-07-02, 01:42:04,VALID,1004.46,VALID,0,VALID,89.174,VALID,0,VALID,25.785,VALID,104,VALID,1.22148,
2010-07-02, 01:43:04,VALID,1004.46,VALID,0,VALID,89.4639,VALID,0,VALID,25.746,VALID,126,VALID,1.76758,
2010-07-02, 01:44:04,VALID,1004.48,VALID,0,VALID,89.7996,VALID,0,VALID,25.7869,VALID,125,VALID,0.816406,
2010-07-02, 01:45:04,VALID,1004.48,VALID,0,VALID,90.242,VALID,0,VALID,25.748,VALID,121,VALID,0.548828,
2010-07-02, 01:46:04,VALID,1004.5,VALID,0,VALID,90.6464,VALID,0,VALID,25.709,VALID,87,VALID,0.901172,
2010-07-02, 01:47:04,VALID,1004.53,VALID,0,VALID,91.1728,VALID,0,VALID,25.67,VALID,127,VALID,0.945703,
2010-07-02, 01:48:04,VALID,1004.53,VALID,0,VALID,91.9509,VALID,0,VALID,25.6506,VALID,108,VALID,0.986328,
2010-07-02, 01:49:04,VALID,1004.52,VALID,0,VALID,93.0418,VALID,0,VALID,25.6116,VALID,94,VALID,0.442187,
2010-07-02, 01:50:04,VALID,1004.53,VALID,0,VALID,94.6363,VALID,0,VALID,25.5921,VALID,110,VALID,0.194531,
2010-07-02, 01:51:04,VALID,1004.52,VALID,0,VALID,95.5288,VALID,0,VALID,25.5727,VALID,88,VALID,0.559766,
2010-07-02, 01:52:04,VALID,1004.54,VALID,0,VALID,95.773,VALID,0,VALID,25.5727,VALID,84,VALID,0.300781,
2010-07-02, 01:53:04,VALID,1004.56,VALID,0,VALID,96.4596,VALID,0,VALID,25.5123,VALID,105,VALID,0.302344,
2010-07-02, 01:54:04,VALID,1004.6,VALID,0,VALID,96.7952,VALID,0,VALID,25.5337,VALID,110,VALID,0.650781,
2010-07-02, 01:55:04,VALID,1004.58,VALID,0,VALID,97.581,VALID,0,VALID,25.5337,VALID,126,VALID,0.759766,
2010-07-02, 01:56:04,VALID,1004.56,VALID,0,VALID,97.642,VALID,0,VALID,25.4928,VALID,128,VALID,0.935938,
2010-07-02, 01:57:04,VALID,1004.57,VALID,0,VALID,97.1919,VALID,0,VALID,25.5318,VALID,127,VALID,0.451562,
2010-07-02, 01:58:04,VALID,1004.54,VALID,0,VALID,96.2917,VALID,0,VALID,25.5532,VALID,123,VALID,0.651172,
2010-07-02, 01:59:04,VALID,1004.55,VALID,0,VALID,95.5822,VALID,0,VALID,25.5337,VALID,69,VALID,0.318359,
2010-07-02, 02:00:04,VALID,1004.56,VALID,0,VALID,95.3686,VALID,0,VALID,25.5337,VALID,69,VALID,0.433594,
2010-07-02, 02:01:04,VALID,1004.6,VALID,0,VALID,95.567,VALID,0,VALID,25.4928,VALID,69,VALID,0.290625,
2010-07-02, 02:02:04,VALID,1004.6,VALID,0,VALID,96.2765,VALID,0,VALID,25.5162,VALID,69,VALID,0.192188,
2010-07-02, 02:03:04,VALID,1004.62,VALID,0,VALID,96.7647,VALID,0,VALID,25.4734,VALID,69,VALID,0.142578,
2010-07-02, 02:04:04,VALID,1004.62,VALID,0,VALID,97.1767,VALID,0,VALID,25.4558,VALID,69,VALID,0,
2010-07-02, 02:05:04,VALID,1004.6,VALID,0,VALID,97.6268,VALID,0,VALID,25.4169,VALID,69,VALID,0,
2010-07-02, 02:06:04,VALID,1004.56,VALID,0,VALID,97.6802,VALID,0,VALID,25.3974,VALID,69,VALID,0.00234375,
2010-07-02, 02:07:04,VALID,1004.58,VALID,0,VALID,97.9167,VALID,0,VALID,25.3779,VALID,69,VALID,0.240234,
2010-07-02, 02:08:04,VALID,1004.55,VALID,0,VALID,98.3058,VALID,0,VALID,25.3779,VALID,69,VALID,0,
2010-07-02, 02:09:04,VALID,1004.58,VALID,0,VALID,98.9008,VALID,0,VALID,25.3779,VALID,69,VALID,0,
2010-07-02, 02:10:04,VALID,1004.56,VALID,0,VALID,99.3814,VALID,0,VALID,25.339,VALID,69,VALID,0,
2010-07-02, 02:11:04,VALID,1004.54,VALID,0,VALID,99.5645,VALID,0,VALID,25.3214,VALID,69,VALID,0,
2010-07-02, 02:12:04,VALID,1004.53,VALID,0,VALID,99.4196,VALID,0,VALID,25.2202,VALID,69,VALID,0,
2010-07-02, 02:13:04,VALID,1004.52,VALID,0,VALID,99.473,VALID,0,VALID,25.1832,VALID,69,VALID,0,
2010-07-02, 02:14:04,VALID,1004.52,VALID,0,VALID,99.7476,VALID,0,VALID,25.1053,VALID,69,VALID,0,
2010-07-02, 02:15:04,VALID,1004.46,VALID,0,VALID,100.076,VALID,0,VALID,25.0469,VALID,69,VALID,0,
2010-07-02, 02:16:04,VALID,1004.43,VALID,0,VALID,100.335,VALID,0,VALID,24.9885,VALID,69,VALID,0,
2010-07-02, 02:17:04,VALID,1004.42,VALID,0,VALID,100.564,VALID,0,VALID,24.9106,VALID,69,VALID,0,
2010-07-02, 02:18:04,VALID,1004.4,VALID,0,VALID,100.839,VALID,0,VALID,24.8503,VALID,69,VALID,0,
2010-07-02, 02:19:04,VALID,1004.39,VALID,0,VALID,101.022,VALID,0,VALID,24.8113,VALID,69,VALID,0,
2010-07-02, 02:20:04,VALID,1004.42,VALID,0,VALID,101.182,VALID,0,VALID,24.8132,VALID,69,VALID,0,
2010-07-02, 02:21:04,VALID,1004.44,VALID,0,VALID,101.251,VALID,0,VALID,24.7743,VALID,69,VALID,0,
2010-07-02, 02:22:04,VALID,1004.45,VALID,0,VALID,101.304,VALID,0,VALID,24.7548,VALID,69,VALID,0,
2010-07-02, 02:23:04,VALID,1004.46,VALID,0,VALID,101.327,VALID,0,VALID,24.7353,VALID,69,VALID,0,
2010-07-02, 02:24:04,VALID,1004.49,VALID,0,VALID,101.418,VALID,0,VALID,24.7353,VALID,69,VALID,0,
2010-07-02, 02:25:04,VALID,1004.53,VALID,0,VALID,101.495,VALID,0,VALID,24.6964,VALID,69,VALID,0,
2010-07-02, 02:26:04,VALID,1004.56,VALID,0,VALID,101.51,VALID,0,VALID,24.6983,VALID,69,VALID,0,
2010-07-02, 02:27:04,VALID,1004.58,VALID,0,VALID,101.579,VALID,0,VALID,24.638,VALID,69,VALID,0,
2010-07-02, 02:28:04,VALID,1004.57,VALID,0,VALID,101.579,VALID,0,VALID,24.599,VALID,69,VALID,0,
2010-07-02, 02:29:04,VALID,1004.55,VALID,0,VALID,101.617,VALID,0,VALID,24.5582,VALID,69,VALID,0,
2010-07-02, 02:30:04,VALID,1004.54,VALID,0,VALID,101.662,VALID,0,VALID,24.5388,VALID,69,VALID,0,
2010-07-02, 02:31:04,VALID,1004.55,VALID,0,VALID,101.678,VALID,0,VALID,24.4998,VALID,69,VALID,0,
2010-07-02, 02:32:04,VALID,1004.55,VALID,0,VALID,101.685,VALID,0,VALID,24.5212,VALID,69,VALID,0,
2010-07-02, 02:33:04,VALID,1004.52,VALID,0,VALID,101.731,VALID,0,VALID,24.4822,VALID,69,VALID,0,
2010-07-02, 02:34:04,VALID,1004.52,VALID,0,VALID,101.769,VALID,0,VALID,24.4628,VALID,69,VALID,0,
2010-07-02, 02:35:04,VALID,1004.49,VALID,0,VALID,101.777,VALID,0,VALID,24.4433,VALID,69,VALID,0,
2010-07-02, 02:36:04,VALID,1004.52,VALID,0,VALID,101.8,VALID,0,VALID,24.4238,VALID,69,VALID,0,
2010-07-02, 02:37:04,VALID,1004.52,VALID,0,VALID,101.815,VALID,0,VALID,24.4043,VALID,69,VALID,0,
2010-07-02, 02:38:04,VALID,1004.52,VALID,0,VALID,101.838,VALID,0,VALID,24.3849,VALID,69,VALID,0,
2010-07-02, 02:39:04,VALID,1004.49,VALID,0,VALID,101.853,VALID,0,VALID,24.3441,VALID,69,VALID,0,
2010-07-02, 02:40:04,VALID,1004.47,VALID,0,VALID,101.884,VALID,0,VALID,24.3246,VALID,69,VALID,0,
2010-07-02, 02:41:04,VALID,1004.5,VALID,0,VALID,101.884,VALID,0,VALID,24.3246,VALID,69,VALID,0,
2010-07-02, 02:42:04,VALID,1004.5,VALID,0,VALID,101.899,VALID,0,VALID,24.3265,VALID,69,VALID,0,
2010-07-02, 02:43:04,VALID,1004.49,VALID,0,VALID,101.922,VALID,0,VALID,24.2875,VALID,69,VALID,0,
2010-07-02, 02:44:04,VALID,1004.47,VALID,0,VALID,101.937,VALID,0,VALID,24.2875,VALID,69,VALID,0,
2010-07-02, 02:45:04,VALID,1004.47,VALID,0,VALID,101.929,VALID,0,VALID,24.2273,VALID,69,VALID,0,
2010-07-02, 02:46:04,VALID,1004.49,VALID,0,VALID,101.952,VALID,0,VALID,24.2273,VALID,69,VALID,0,
2010-07-02, 02:47:04,VALID,1004.53,VALID,0,VALID,101.922,VALID,0,VALID,24.1884,VALID,69,VALID,0,
2010-07-02, 02:48:04,VALID,1004.56,VALID,0,VALID,101.914,VALID,0,VALID,24.2097,VALID,69,VALID,0,
2010-07-02, 02:49:04,VALID,1004.55,VALID,0,VALID,101.937,VALID,0,VALID,24.2097,VALID,67,VALID,0,
2010-07-02, 02:50:04,VALID,1004.56,VALID,0,VALID,101.983,VALID,0,VALID,24.1513,VALID,57,VALID,0,
2010-07-02, 02:51:04,VALID,1004.56,VALID,0,VALID,101.968,VALID,0,VALID,24.1318,VALID,57,VALID,0,
2010-07-02, 02:52:04,VALID,1004.55,VALID,0,VALID,101.952,VALID,0,VALID,24.091,VALID,57,VALID,0,
2010-07-02, 02:53:04,VALID,1004.57,VALID,0,VALID,101.96,VALID,0,VALID,24.1123,VALID,57,VALID,0,
2010-07-02, 02:54:04,VALID,1004.56,VALID,0,VALID,101.952,VALID,0,VALID,24.0716,VALID,57,VALID,0,
2010-07-02, 02:55:04,VALID,1004.56,VALID,0,VALID,101.96,VALID,0,VALID,24.0929,VALID,57,VALID,0,
2010-07-02, 02:56:04,VALID,1004.53,VALID,0,VALID,101.96,VALID,0,VALID,24.0929,VALID,57,VALID,0,
2010-07-02, 02:57:04,VALID,1004.52,VALID,0,VALID,101.968,VALID,0.100563,VALID,24.0716,VALID,57,VALID,0,
2010-07-02, 02:58:04,VALID,1004.5,VALID,0,VALID,101.991,VALID,0,VALID,24.0716,VALID,57,VALID,0,
2010-07-02, 02:59:04,VALID,1004.47,VALID,0,VALID,101.96,VALID,0,VALID,24.0521,VALID,57,VALID,0,
2010-07-02, 03:00:04,VALID,1004.47,VALID,0,VALID,101.945,VALID,0,VALID,24.0521,VALID,56,VALID,0,
2010-07-02, 03:01:04,VALID,1004.45,VALID,0,VALID,101.975,VALID,0,VALID,24.0716,VALID,56,VALID,0,
2010-07-02, 03:02:04,VALID,1004.43,VALID,0,VALID,102.006,VALID,0,VALID,24.0326,VALID,42,VALID,0,
2010-07-02, 03:03:04,VALID,1004.45,VALID,0,VALID,101.998,VALID,0,VALID,24.0345,VALID,41,VALID,0,
2010-07-02, 03:04:04,VALID,1004.48,VALID,0,VALID,102.006,VALID,0,VALID,24.0326,VALID,41,VALID,0,
2010-07-02, 03:05:04,VALID,1004.46,VALID,0,VALID,101.991,VALID,0,VALID,24.0132,VALID,41,VALID,0,
2010-07-02, 03:06:04,VALID,1004.5,VALID,0,VALID,102.006,VALID,0,VALID,24.0132,VALID,41,VALID,0,
2010-07-02, 03:07:04,VALID,1004.46,VALID,0,VALID,101.975,VALID,0,VALID,24.0132,VALID,41,VALID,0,
2010-07-02, 03:08:04,VALID,1004.46,VALID,0,VALID,101.968,VALID,0,VALID,23.9937,VALID,41,VALID,0,
2010-07-02, 03:09:04,VALID,1004.43,VALID,0,VALID,101.945,VALID,0,VALID,24.0326,VALID,41,VALID,0,
2010-07-02, 03:10:04,VALID,1004.46,VALID,0,VALID,101.937,VALID,0,VALID,24.0521,VALID,41,VALID,0,
2010-07-02, 03:11:04,VALID,1004.5,VALID,0,VALID,101.968,VALID,0,VALID,24.0734,VALID,41,VALID,0,
2010-07-02, 03:12:04,VALID,1004.58,VALID,0,VALID,101.96,VALID,0,VALID,24.0716,VALID,41,VALID,0,
2010-07-02, 03:13:04,VALID,1004.63,VALID,0,VALID,101.968,VALID,0,VALID,24.0929,VALID,41,VALID,0,
2010-07-02, 03:14:04,VALID,1004.65,VALID,0,VALID,101.952,VALID,0,VALID,24.091,VALID,41,VALID,0,
2010-07-02, 03:15:04,VALID,1004.65,VALID,0,VALID,101.937,VALID,0,VALID,24.1105,VALID,41,VALID,0,
2010-07-02, 03:16:04,VALID,1004.64,VALID,0,VALID,101.922,VALID,0,VALID,24.13,VALID,41,VALID,0,
2010-07-02, 03:17:04,VALID,1004.6,VALID,0,VALID,101.945,VALID,0,VALID,24.1494,VALID,40,VALID,0,
2010-07-02, 03:18:04,VALID,1004.59,VALID,0,VALID,101.945,VALID,0,VALID,24.1494,VALID,40,VALID,0,
2010-07-02, 03:19:04,VALID,1004.56,VALID,0,VALID,101.929,VALID,0.100563,VALID,24.1884,VALID,40,VALID,0,
2010-07-02, 03:20:04,VALID,1004.59,VALID,0,VALID,101.891,VALID,0,VALID,24.2486,VALID,356,VALID,0.64375,
2010-07-02, 03:21:04,VALID,1004.63,VALID,0,VALID,101.861,VALID,0.100563,VALID,24.2857,VALID,357,VALID,0.752734,
2010-07-02, 03:22:04,VALID,1004.71,VALID,0,VALID,101.899,VALID,0,VALID,24.2857,VALID,17,VALID,1.0043,
2010-07-02, 03:23:04,VALID,1004.73,VALID,0,VALID,101.922,VALID,0,VALID,24.2857,VALID,24,VALID,0.707812,
2010-07-02, 03:24:04,VALID,1004.78,VALID,0.5,VALID,101.914,VALID,0.100563,VALID,24.2839,VALID,25,VALID,0.285156,
2010-07-02, 03:25:04,VALID,1004.78,VALID,1.5,VALID,101.823,VALID,0,VALID,24.3246,VALID,38,VALID,0.669141,
2010-07-02, 03:26:04,VALID,1004.76,VALID,1,VALID,101.693,VALID,0,VALID,24.4043,VALID,63,VALID,0.880469,
2010-07-02, 03:27:04,VALID,1004.69,VALID,1,VALID,101.601,VALID,0,VALID,24.4822,VALID,87,VALID,1.24961,
2010-07-02, 03:28:04,VALID,1004.63,VALID,1,VALID,101.609,VALID,0,VALID,24.4414,VALID,87,VALID,0.459766,
2010-07-02, 03:29:04,VALID,1004.59,VALID,0.5,VALID,101.563,VALID,0,VALID,24.4628,VALID,96,VALID,0.791016,
2010-07-02, 03:30:04,VALID,1004.61,VALID,0,VALID,101.525,VALID,0,VALID,24.4414,VALID,122,VALID,0.948047,
2010-07-02, 03:31:04,VALID,1004.67,VALID,0,VALID,101.464,VALID,0,VALID,24.4804,VALID,134,VALID,1.06484,
2010-07-02, 03:32:04,VALID,1004.63,VALID,0,VALID,101.411,VALID,0,VALID,24.4998,VALID,148,VALID,1.29609,
2010-07-02, 03:33:04,VALID,1004.62,VALID,0,VALID,101.357,VALID,0,VALID,24.5388,VALID,140,VALID,0.491406,
2010-07-02, 03:34:04,VALID,1004.66,VALID,0,VALID,101.304,VALID,0,VALID,24.5582,VALID,137,VALID,0,
2010-07-02, 03:35:04,VALID,1004.68,VALID,0.5,VALID,101.243,VALID,0,VALID,24.5777,VALID,101,VALID,0.433203,
2010-07-02, 03:36:04,VALID,1004.75,VALID,0,VALID,101.22,VALID,0,VALID,24.5758,VALID,98,VALID,0.286719,
2010-07-02, 03:37:04,VALID,1004.78,VALID,0,VALID,101.228,VALID,0,VALID,24.5972,VALID,60,VALID,0.45,
2010-07-02, 03:38:04,VALID,1004.85,VALID,0,VALID,101.197,VALID,0,VALID,24.5777,VALID,73,VALID,0.333984,
2010-07-02, 03:39:04,VALID,1004.92,VALID,0,VALID,101.182,VALID,0,VALID,24.599,VALID,99,VALID,1.00625,
2010-07-02, 03:40:04,VALID,1004.93,VALID,0,VALID,101.128,VALID,0,VALID,24.5777,VALID,102,VALID,1.23359,
2010-07-02, 03:41:04,VALID,1004.85,VALID,0.5,VALID,101.128,VALID,0,VALID,24.5972,VALID,125,VALID,0.621484,
2010-07-02, 03:42:04,VALID,1004.79,VALID,0.5,VALID,101.09,VALID,0,VALID,24.5758,VALID,119,VALID,1.08906,
2010-07-02, 03:43:04,VALID,1004.65,VALID,0.5,VALID,101.052,VALID,0,VALID,24.5972,VALID,115,VALID,0.199609,
2010-07-02, 03:44:04,VALID,1004.65,VALID,0,VALID,101.06,VALID,0,VALID,24.5972,VALID,115,VALID,0,
2010-07-02, 03:45:04,VALID,1004.63,VALID,0.5,VALID,101.052,VALID,0,VALID,24.5777,VALID,114,VALID,0,
2010-07-02, 03:46:04,VALID,1004.68,VALID,0,VALID,101.037,VALID,0,VALID,24.5582,VALID,96,VALID,0.675,
2010-07-02, 03:47:04,VALID,1004.64,VALID,0,VALID,101.06,VALID,0,VALID,24.4998,VALID,93,VALID,0.478125,
2010-07-02, 03:48:04,VALID,1004.61,VALID,0,VALID,101.045,VALID,0,VALID,24.5017,VALID,93,VALID,0,
2010-07-02, 03:49:04,VALID,1004.57,VALID,0,VALID,101.029,VALID,0,VALID,24.4998,VALID,93,VALID,0.0359375,
2010-07-02, 03:50:04,VALID,1004.56,VALID,0.5,VALID,100.976,VALID,0,VALID,24.4998,VALID,84,VALID,0.366016,
2010-07-02, 03:51:04,VALID,1004.56,VALID,0,VALID,100.945,VALID,0,VALID,24.5193,VALID,61,VALID,0,
2010-07-02, 03:52:04,VALID,1004.56,VALID,0,VALID,100.945,VALID,0,VALID,24.5388,VALID,61,VALID,0,